[[{"header":{"parameterUnit":"m.s-1","parameterCategory":1,"la1":30.2991,"la2":30.254,"lo1":-89.0895,"lo2":-89.0444,"dy":0.0017,"dx":0.0017,"nx":28,"ny":28,"refTime":"2024-12-23T09:00:00:Z","depth":0,"parameterNumber":2,"parameterNumberName":"U-component_of_WINDS"},"data":[0,0,0,0,0,0,0,0,0,0,0,0,0,0,0,0,0,0,0,0,0,0,0,0,0,0,0,0,0,0,0,0,0,0,0,0,0,0,0,0,0,0,0,0,0,0,0,0,0,0,0,0,0,0,0,0,0,0,-3.2503,-3.2503,0,-3.2546,-3.2546,-3.2547,-3.2424,-3.242,-3.2416,-3.2413,-3.2459,-3.2464,-3.2468,0,0,0,0,0,0,0,0,0,0,0,0,0,-3.2316,-3.232,-3.2503,-3.2503,-3.2504,-3.2546,-3.2546,-3.2547,-3.2424,-3.242,-3.2415,-3.2411,-3.2457,-3.2463,-3.2469,0,0,0,0,0,0,0,0,0,0,0,0,0,-3.2382,-3.2322,-3.2503,-3.2448,-3.2443,-3.2546,-3.2546,-3.2547,-3.2425,-3.242,-3.2414,-3.2409,-3.2455,-3.2462,-3.2469,-3.2628,0,0,-3.2491,-3.2494,0,0,0,0,0,0,0,0,-3.2379,-3.2389,-3.2455,-3.2452,-3.2447,-3.2473,-3.2497,-3.2574,-3.2427,-3.2432,-3.2412,-3.2406,-3.2469,-3.2474,-3.2495,-3.263,-3.2632,-3.2492,-3.2496,-3.2499,-3.2501,0,0,0,0,0,0,0,-3.2374,-3.2387,-3.252,-3.2456,-3.2451,-3.2421,-3.2424,-3.2511,-3.2482,-3.2431,-3.2422,-3.2429,-3.2465,-3.2488,-3.2495,-3.2633,-3.2492,-3.2498,-3.2503,-3.2505,-3.2899,-3.2905,0,0,0,0,0,0,-3.2376,-3.2384,-3.2518,-3.2521,-3.2398,-3.2429,-3.2433,-3.2471,-3.2481,-3.2477,-3.2434,-3.2423,-3.2479,-3.2487,-3.2496,-3.2682,-3.2499,-3.2506,-3.251,-3.2893,-3.2901,-3.2907,0,0,0,0,0,0,-3.2373,-3.239,-3.2517,-3.245,-3.2464,-3.2439,-3.2482,-3.2475,-3.2498,-3.2483,-3.2477,-3.2463,-3.2475,-3.2486,-3.2596,-3.2682,-3.2509,-3.2516,-3.2886,-3.2896,-3.2904,-3.3056,0,0,0,0,0,0,-3.2368,-3.2389,-3.2449,-3.2452,-3.2468,-3.2616,-3.2488,-3.248,-3.251,-3.2496,-3.2508,-3.2505,-3.2471,-3.2586,-3.2603,-3.2689,-3.2521,-3.2878,-3.289,-3.2901,-3.3043,-3.307,-3.3092,0,0,0,0,0,-3.2362,-3.2491,-3.2453,-3.2469,-3.2542,-3.2621,-3.263,-3.2588,-3.2518,-3.2578,-3.2568,-3.2504,-3.267,-3.2598,-3.2616,-3.2706,-3.2873,-3.2887,-3.29,-3.3033,-3.3064,-3.3091,0,0,0,0,0,0,-3.2499,-3.249,-3.2448,-3.2581,-3.2603,-3.26,-3.2674,-3.2623,-3.2666,-3.2651,-3.2598,-3.2601,-3.2721,-3.2724,-3.2644,-3.2859,-3.2759,-3.2777,-3.2853,-3.2884,-3.2907,-3.2905,-3.2527,0,0,0,0,0,-3.2545,-3.2609,-3.2598,-3.2717,-3.2729,-3.2701,-3.2733,-3.2699,-3.2719,-3.2728,-3.2726,-3.2749,-3.2806,-3.2844,-3.2896,-3.3043,-3.3044,-3.3113,-3.3137,-3.3157,-3.3174,-3.3252,-3.3283,-3.2953,-3.2953,-3.2953,0,0,-3.264,-3.2643,-3.2687,-3.2744,-3.2757,-3.2825,-3.2709,-3.2786,-3.2837,-3.274,-3.2843,-3.2843,-3.2864,-3.2994,-3.305,-3.3,-3.3265,-3.3175,-3.3191,-3.3197,-3.327,-3.3301,-3.3329,-3.2962,-3.2961,-3.2959,0,0,-3.2849,-3.2857,-3.2957,-3.2972,-3.2992,-3.2971,-3.2996,-3.3001,-3.2996,-3.3099,-3.3028,-3.3087,-3.3186,-3.3204,-3.3227,-3.3442,-3.3385,-3.346,-3.3587,-3.3664,-3.369,-3.3713,-3.379,-3.3819,-3.3476,-3.3477,-3.3477,0,-3.2965,-3.3065,-3.3015,-3.3097,-3.3125,-3.3039,-3.314,-3.3157,-3.3194,-3.3215,-3.3157,-3.3279,-3.3288,-3.342,-3.3473,-3.3493,-3.352,-3.3459,-3.369,-3.3712,-3.3733,-3.3806,-3.3836,-3.3486,-3.3485,-3.3484,-3.3483,0,-3.3207,-3.3277,-3.3355,-3.3392,-3.3428,-3.3519,-3.3484,-3.3527,-3.3489,-3.3475,-3.3581,-3.3588,-3.3639,-3.3667,-3.3632,-3.3795,-3.3763,-3.3699,-3.3597,-3.3774,-3.3842,-3.387,-3.3499,-3.3495,-3.3493,-3.3491,0,0,-3.3505,-3.3512,-3.3542,-3.3557,-3.3572,-3.3626,-3.3713,-3.3763,-3.3801,-3.3828,-3.3901,-3.3986,-3.3926,-3.3952,-3.3917,-3.3984,-3.4155,-3.3912,-3.3911,-3.3958,-3.4336,-3.4385,-3.4418,-3.4117,-3.4122,-3.4126,-3.4334,0,-3.3711,-3.386,-3.3818,-3.3968,-3.4032,-3.3951,-3.4027,-3.4045,-3.4034,-3.4088,-3.4075,-3.4137,-3.4053,-3.4068,-3.4131,-3.4121,-3.423,-3.4105,-3.4185,-3.4188,-3.4183,-3.4454,-3.4506,-3.4702,-3.436,-3.4365,-3.4368,0,-3.3972,-3.4009,-3.4166,-3.417,-3.4195,-3.4264,-3.4306,-3.4358,-3.4376,-3.4363,-3.4392,-3.4343,-3.443,-3.4326,-3.4445,-3.4361,-3.4391,-3.4391,-3.4397,-3.4404,-3.429,-3.4469,-3.4764,-3.4794,-3.4409,-3.4406,-3.4403,0,-3.4175,-3.4264,-3.4369,-3.4384,-3.4392,-3.4442,-3.4448,-3.4461,-3.4493,-3.4529,-3.455,-3.4596,-3.4622,-3.466,-3.4625,-3.4553,-3.475,-3.4643,-3.4742,-3.4744,-3.4789,-3.4787,-3.5094,-3.4806,-3.4806,-3.4805,-3.4805,0,-3.4411,-3.451,-3.446,-3.4525,-3.4633,-3.4584,-3.4693,-3.4689,-3.4701,-3.4764,-3.4696,-3.4757,-3.4706,-3.4763,-3.4736,-3.4839,-3.4851,-3.4843,-3.4836,-3.485,-3.4852,-3.487,-3.4856,-3.4813,-3.4811,-3.481,-3.4808,0,-3.4657,-3.4627,-3.4736,-3.4734,-3.4735,-3.4816,-3.4813,-3.4874,-3.4857,-3.4937,-3.4953,-3.4928,-3.499,-3.4959,-3.5025,-3.5006,-3.514,-3.5113,-3.5133,-3.5127,-3.5228,-3.5219,-3.5559,-3.5601,-3.5286,-3.5289,-3.5291,0,-3.481,-3.4884,-3.4889,-3.4926,-3.4936,-3.4996,-3.5028,-3.4982,-3.5018,-3.5045,-3.5102,-3.5158,-3.5201,-3.5306,-3.5293,-3.5343,-3.5317,-3.5433,-3.5325,-3.5337,-3.5321,-3.5317,-3.5325,-3.5455,-3.5459,-3.5462,-3.5464,0,-3.5085,-3.5067,-3.5115,-3.5159,-3.52,-3.5232,-3.5259,-3.5293,-3.5247,-3.5292,-3.5355,-3.5388,-3.5454,-3.5512,-3.5554,-3.556,-3.5506,-3.5498,-3.5524,-3.5541,-3.555,-3.5548,-3.5194,-3.5491,-3.5489,-3.5487,-3.5485,-3.5484,-3.529,-3.5352,-3.5365,-3.5422,-3.5437,-3.5463,-3.5519,-3.5509,-3.556,-3.561,-3.5579,-3.5654,-3.567,-3.5722,-3.5735,-3.5792,-3.5746,-3.5784,-3.5793,-3.5803,-3.5818,-3.554,-3.58,-3.5799,-3.5798,-3.5798,-3.5797,0,-3.5562,-3.5566,-3.5619,-3.5658,-3.5703,-3.5645,-3.5672,-3.5714,-3.5779,-3.5799,-3.5842,-3.5914,-3.5969,-3.5961,-3.6011,-3.6059,-3.6035,-3.6074,-3.6071,-3.6073,-3.5855,-3.5828,-3.6092,-3.6092,-3.6092,-3.6092,-3.6092,-3.6092,-3.571,-3.5812,-3.5795,-3.5904,-3.5906,-3.5978,-3.5998,-3.6022,-3.6037,-3.6121,-3.6166,-3.616,-3.6168,-3.6218,-3.6266,-3.6262,-3.6285,-3.6333,-3.632,-3.6117,-3.6088,-3.606,-3.6035,-3.6338,-3.6338,-3.6533,-3.6535,-3.6536]},{"header":{"parameterUnit":"m.s-1","parameterCategory":1,"la1":30.2991,"la2":30.254,"lo1":-89.0895,"lo2":-89.0444,"dy":0.0017,"dx":0.0017,"nx":28,"ny":28,"refTime":"2024-12-23T09:00:00:Z","depth":0,"parameterNumber":3,"parameterNumberName":"V-component_of_WINDS"},"data":[0,0,0,0,0,0,0,0,0,0,0,0,0,0,0,0,0,0,0,0,0,0,0,0,0,0,0,0,0,0,0,0,0,0,0,0,0,0,0,0,0,0,0,0,0,0,0,0,0,0,0,0,0,0,0,0,0,0,-1.8118,-1.8118,0,-1.8117,-1.8117,-1.8117,-1.8106,-1.8105,-1.8105,-1.8105,-1.8103,-1.8103,-1.8103,0,0,0,0,0,0,0,0,0,0,0,0,0,-1.8107,-1.8108,-1.8118,-1.8118,-1.8118,-1.8117,-1.8117,-1.8117,-1.8106,-1.8105,-1.8105,-1.8105,-1.8103,-1.8103,-1.8103,0,0,0,0,0,0,0,0,0,0,0,0,0,-1.811,-1.8108,-1.8118,-1.8112,-1.8112,-1.8117,-1.8117,-1.8117,-1.8106,-1.8105,-1.8105,-1.8104,-1.8103,-1.8103,-1.8103,-1.8113,0,0,-1.8104,-1.8104,0,0,0,0,0,0,0,0,-1.811,-1.811,-1.8113,-1.8112,-1.8112,-1.8111,-1.8112,-1.8116,-1.8106,-1.8108,-1.8105,-1.8104,-1.8106,-1.8106,-1.8107,-1.8113,-1.8113,-1.8104,-1.8104,-1.8105,-1.8105,0,0,0,0,0,0,0,-1.8109,-1.811,-1.8117,-1.8113,-1.8112,-1.8109,-1.8109,-1.8113,-1.8109,-1.8108,-1.8107,-1.8107,-1.8105,-1.8106,-1.8106,-1.8113,-1.8104,-1.8105,-1.8105,-1.8105,-1.8126,-1.8126,0,0,0,0,0,0,-1.811,-1.811,-1.8117,-1.8117,-1.811,-1.8109,-1.8109,-1.8112,-1.8109,-1.8108,-1.8107,-1.8106,-1.8106,-1.8106,-1.8106,-1.8117,-1.8105,-1.8105,-1.8105,-1.8126,-1.8126,-1.8127,0,0,0,0,0,0,-1.811,-1.8111,-1.8117,-1.8113,-1.8114,-1.811,-1.8113,-1.8112,-1.8113,-1.8109,-1.8108,-1.8109,-1.8106,-1.8106,-1.8111,-1.8116,-1.8105,-1.8105,-1.8125,-1.8126,-1.8126,-1.8138,0,0,0,0,0,0,-1.811,-1.8111,-1.8116,-1.8114,-1.8114,-1.8123,-1.8113,-1.8112,-1.8113,-1.8112,-1.811,-1.8109,-1.8105,-1.8111,-1.8112,-1.8117,-1.8106,-1.8125,-1.8125,-1.8126,-1.8137,-1.8139,-1.8141,0,0,0,0,0,-1.811,-1.8119,-1.8116,-1.8117,-1.812,-1.8124,-1.8124,-1.8119,-1.8114,-1.8118,-1.8115,-1.8109,-1.8116,-1.8112,-1.8112,-1.8117,-1.8124,-1.8125,-1.8126,-1.8137,-1.8139,-1.8141,0,0,0,0,0,0,-1.8123,-1.8119,-1.8115,-1.8125,-1.8125,-1.8122,-1.8127,-1.8122,-1.8123,-1.8122,-1.8116,-1.8115,-1.8121,-1.812,-1.8115,-1.8126,-1.8119,-1.812,-1.8127,-1.8129,-1.813,-1.813,-1.8106,0,0,0,0,0,-1.8126,-1.813,-1.8127,-1.8136,-1.8136,-1.8131,-1.8133,-1.8129,-1.8128,-1.8128,-1.8126,-1.8125,-1.8126,-1.8127,-1.8129,-1.8137,-1.8136,-1.8141,-1.8142,-1.8144,-1.8145,-1.8147,-1.8149,-1.8129,-1.8129,-1.8129,0,0,-1.8135,-1.8133,-1.8136,-1.8138,-1.8137,-1.814,-1.8131,-1.8135,-1.8137,-1.8128,-1.8133,-1.8131,-1.813,-1.8136,-1.8139,-1.8135,-1.8149,-1.8145,-1.8146,-1.8146,-1.8148,-1.815,-1.8151,-1.813,-1.813,-1.813,0,0,-1.8151,-1.8151,-1.8157,-1.8156,-1.8155,-1.8152,-1.8153,-1.8151,-1.8149,-1.8154,-1.8147,-1.8148,-1.8152,-1.815,-1.815,-1.8163,-1.8158,-1.8164,-1.8173,-1.8175,-1.8176,-1.8178,-1.8181,-1.8183,-1.8165,-1.8165,-1.8165,0,-1.8162,-1.8167,-1.8161,-1.8165,-1.8165,-1.8157,-1.8163,-1.8162,-1.8161,-1.8161,-1.8157,-1.816,-1.8158,-1.8163,-1.8166,-1.8167,-1.8167,-1.8164,-1.8177,-1.8178,-1.8179,-1.8182,-1.8184,-1.8166,-1.8166,-1.8165,-1.8165,0,-1.8178,-1.8182,-1.8187,-1.8186,-1.8187,-1.8192,-1.8186,-1.8187,-1.8183,-1.8179,-1.8183,-1.8181,-1.8181,-1.8182,-1.8178,-1.8185,-1.8183,-1.8178,-1.8171,-1.8182,-1.8185,-1.8186,-1.8167,-1.8166,-1.8166,-1.8166,0,0,-1.8204,-1.8199,-1.8201,-1.8199,-1.8196,-1.8198,-1.8202,-1.8202,-1.8202,-1.8201,-1.8203,-1.8205,-1.82,-1.82,-1.8195,-1.8198,-1.8206,-1.8192,-1.8192,-1.8194,-1.8213,-1.8217,-1.8218,-1.8203,-1.8203,-1.8203,-1.8213,0,-1.8219,-1.8225,-1.8219,-1.8227,-1.8228,-1.822,-1.8222,-1.822,-1.8217,-1.8217,-1.8213,-1.8214,-1.8208,-1.8207,-1.8209,-1.8205,-1.821,-1.8204,-1.8204,-1.8204,-1.8204,-1.822,-1.8224,-1.8233,-1.8214,-1.8214,-1.8215,0,-1.8238,-1.8237,-1.8244,-1.8239,-1.8239,-1.8242,-1.824,-1.8241,-1.8238,-1.8235,-1.8234,-1.8228,-1.823,-1.8223,-1.8225,-1.8221,-1.822,-1.8218,-1.8218,-1.8217,-1.821,-1.8219,-1.8237,-1.8238,-1.8217,-1.8216,-1.8216,0,-1.8254,-1.8255,-1.8259,-1.8258,-1.8252,-1.8254,-1.8252,-1.8248,-1.8248,-1.8246,-1.8245,-1.8244,-1.8243,-1.8241,-1.8235,-1.823,-1.8237,-1.823,-1.8234,-1.8234,-1.8235,-1.8235,-1.8252,-1.8236,-1.8236,-1.8236,-1.8236,0,-1.8271,-1.8275,-1.8266,-1.8268,-1.8272,-1.8265,-1.8269,-1.8265,-1.8262,-1.8263,-1.8255,-1.8256,-1.8247,-1.8247,-1.8242,-1.8243,-1.8243,-1.824,-1.8238,-1.824,-1.824,-1.8239,-1.8238,-1.8236,-1.8236,-1.8236,-1.8236,0,-1.829,-1.8284,-1.8287,-1.8281,-1.828,-1.8283,-1.8277,-1.8278,-1.8274,-1.8275,-1.8274,-1.8267,-1.8266,-1.8259,-1.8257,-1.8253,-1.8256,-1.8253,-1.8257,-1.8256,-1.826,-1.8259,-1.8276,-1.8278,-1.8261,-1.8261,-1.8261,0,-1.8301,-1.8304,-1.8298,-1.8297,-1.8295,-1.8295,-1.8294,-1.8287,-1.8286,-1.8281,-1.8283,-1.8281,-1.8279,-1.8277,-1.8271,-1.8269,-1.8266,-1.8272,-1.8265,-1.8266,-1.8264,-1.8264,-1.8264,-1.8273,-1.8273,-1.8273,-1.8274,0,-1.832,-1.8317,-1.8316,-1.8314,-1.8313,-1.8311,-1.8308,-1.8308,-1.8299,-1.8299,-1.8297,-1.8295,-1.8292,-1.829,-1.8286,-1.8283,-1.8276,-1.8276,-1.8276,-1.8278,-1.828,-1.8278,-1.826,-1.8275,-1.8275,-1.8275,-1.8275,-1.8275,-1.8335,-1.8337,-1.8332,-1.8331,-1.8328,-1.8325,-1.8325,-1.832,-1.8319,-1.8315,-1.8311,-1.8309,-1.8304,-1.8298,-1.8295,-1.8294,-1.829,-1.8291,-1.8292,-1.8292,-1.8292,-1.828,-1.8293,-1.8293,-1.8293,-1.8293,-1.8293,0,-1.8353,-1.8349,-1.8348,-1.8344,-1.8343,-1.8337,-1.8333,-1.8332,-1.8331,-1.8327,-1.8325,-1.8322,-1.8319,-1.8312,-1.8309,-1.8309,-1.8305,-1.8308,-1.8308,-1.8307,-1.8296,-1.8295,-1.831,-1.831,-1.831,-1.831,-1.831,-1.831,-1.8362,-1.8364,-1.836,-1.8359,-1.8355,-1.8354,-1.8352,-1.8349,-1.8345,-1.8342,-1.834,-1.8335,-1.833,-1.8325,-1.8322,-1.832,-1.8319,-1.8322,-1.8319,-1.8309,-1.8308,-1.8306,-1.8305,-1.8322,-1.8322,-1.8329,-1.8329,-1.8329]}]]